Regional Weather Roundup
Issued by NWS

Home | Current Version | Previous Version | Graphics & Text | Print | Product List | Glossary On
Versions: 1 2 3 4 5 6 7 8 9 10 11 12 13 14 15 16 17 18 19 20 21 22 23 24 25 26 27 28 29 30 31 32 33 34 35 36 37 38 39 40 41 42 43 44 45 46 47 48 49 50
000
ASUS43 KOAX 290310
RWRNE

WEATHER ROUNDUP FOR NEBRASKA
NATIONAL WEATHER SERVICE OMAHA NE
900 PM CST FRI NOV 28 2014

NOTES: SATELLITE DATA IS BEING USED TO AUGMENT CLOUD COVER ABOVE
       12000 FEET.
       "FAIR" INDICATES FEW OR NO CLOUDS BELOW 12,000 FEET WITH NO
       SIGNIFICANT WEATHER AND/OR OBSTRUCTIONS TO VISIBILITY.

  * THESE STATIONS DO NOT REPORT WEATHER SUCH AS RAIN...SNOW OR FOG.

NEZ001>004-019>022-054>056-290400-
NEBRASKA PANHANDLE

CITY           SKY/WX    TMP DP  RH WIND       PRES   REMARKS
SCOTTSBLUFF    MOCLDY    42  22  44 W7        29.69F
ALLIANCE       PTCLDY    39  18  42 NW8       29.68S WCI  33
CHADRON        CLEAR    N/A N/A N/A W8        29.60F
KIMBALL        CLOUDY    43  18  37 W10       29.76F
SIDNEY         CLOUDY    43  21  41 W13       29.74F
$$

NEZ057>060-069>072-079>082-290400-
SOUTHWEST NEBRASKA

CITY           SKY/WX    TMP DP  RH WIND       PRES   REMARKS
NORTH PLATTE   MOCLDY    33  22  63 CALM      29.69S
IMPERIAL       MOCLDY    42  18  37 W5        29.72F
LEXINGTON      MOCLDY    42  17  37 NW7       29.66F
MCCOOK         MOCLDY    48  13  24 SW10      29.70S
OGALLALA       MOCLDY    36  29  76 W8        29.70F WCI  29
$$

NEZ005>010-023>029-035>040-094-290400-
NORTH CENTRAL NEBRASKA

CITY           SKY/WX    TMP DP  RH WIND       PRES   REMARKS
VALENTINE      MOCLDY    44  25  47 CALM      29.56F
AINSWORTH      MOCLDY    47  22  38 SW12      29.57F
BROKEN BOW     PTCLDY    52  21  29 W10       29.63F
O`NEILL        MOCLDY    43  30  59 S6        29.57F
ORD            MOCLDY    36  20  52 CALM      29.60F
THEDFORD       PTCLDY    53  23  31 SW12      29.63F
$$

NEZ041-046>049-061>064-073>077-083>087-290400-
SOUTH CENTRAL NEBRASKA

CITY           SKY/WX    TMP DP  RH WIND       PRES   REMARKS
GRAND ISLAND   MOCLDY    43  23  45 SW10      29.63F
AURORA         MOCLDY    42  26  52 SW8       29.63S
HASTINGS       MOCLDY    48  19  31 SW6       29.65S
HEBRON         CLOUDY    52  32  46 SW9G18    29.66S
HOLDREGE       MOCLDY    53  14  21 SW7       29.67S
KEARNEY *      MOCLDY    48  18  29 SW5       29.66F
YORK           PTCLDY    43  32  65 SW9       29.63F
$$

NEZ011>018-030>034-042>045-290400-
NORTHEAST NEBRASKA

CITY           SKY/WX    TMP DP  RH WIND       PRES   REMARKS
NORFOLK        CLOUDY    35  29  78 CALM      29.58F
ALBION         MOCLDY    35  24  63 CALM      29.60F
BLAIR          CLOUDY    43  32  63 S7        29.61F
COLUMBUS *     MOCLDY    32  21  64 CALM      29.61F
FREMONT        CLOUDY    37  30  75 CALM      29.61F
TEKAMAH        CLOUDY    32  24  72 S7        29.62F WCI  26
WAYNE          CLOUDY    29  25  87 CALM      29.60F
$$

NEZ050>053-065>068-078-088>093-290400-
SOUTHEAST NEBRASKA

CITY           SKY/WX    TMP DP  RH WIND       PRES   REMARKS
LINCOLN        MOCLDY    50  32  50 SW10      29.64F
OMAHA EPPLEY   CLOUDY    39  31  72 SE13      29.63F WCI  31
BEATRICE       CLOUDY    51  35  53 S9        29.66S
FALLS CITY     MOCLDY    53  35  50 SW16G25   29.67F
NEBRASKA CITY  MOCLDY    44  29  54 SW14      29.64F
PLATTSMOUTH    MOCLDY    44  30  58 SE6       29.62F
$$

NEZ044-045-051>053-067-290400-
OMAHA AREA

CITY           SKY/WX    TMP DP  RH WIND       PRES   REMARKS
OMAHA EPPLEY   CLOUDY    39  31  72 SE13      29.63F WCI  31
BLAIR          CLOUDY    43  32  63 S7        29.61F
FREMONT        CLOUDY    37  30  75 CALM      29.61F
MILLARD        CLOUDY    39  32  75 CALM      29.63F
OFFUTT AFB     CLOUDY    36  29  77 E6        29.62F WCI  31
PLATTSMOUTH    MOCLDY    44  30  58 SE6       29.62F
WAHOO          FAIR      46  31  56 S9        29.61F
$$


USA.gov is the U.S. government's official web portal to all federal, state and local government web resources and services.